Location: Newark
(34.6283°N, 36.0776°E)
Time: 01:02:56
(UTC+00:00)

S-56A Canister/Altair - Pass Details

Date: 20 October 2019
Orbit: 634 x 2498 km, 38.9° (Epoch: 19 November)

Event Time Altitude Azimuth Distance (km) Brightness Sun altitude
Rises 21:33:18 0° 195° (SSW) 2,956 - -65.7°
Reaches altitude 10° 21:36:16 10° 172° (S) 2,160 - -65.6°
Maximum altitude 21:39:17 16° 134° (SE) 1,934 - -65.5°
Drops below altitude 10° 21:42:46 10° 97° (E) 2,576 - -65.3°
Sets 21:46:49 0° 78° (ENE) 3,860 - -65.1°
